Weather in Mississauga

Canada     43°35′12″N   79°38′43″W
temp.,
°C
wind,
m/s
gust,
m/s
humid.,
%
clouds,
%
prec.,
mm/h
press.,
hPa
HPBL,
m
15 april, thu
thu1523:00+8wnw357191 0.0 1012536
02:00+6nw4582100 0.1 1011740
05:00+4wnw25787 0.5 1010499
08:00+3wnw467613 0.5 1011512
11:00+7wnw4550100 0.0 10091688
14:00+8wnw3545100 0.1 10081971
17:00+8wnw4548100 0.3 10071617
20:00+6wnw3662100 0.6 1007830
16 april, fri
fri1623:00+5wnw597294 0.0 1007675
02:00+5wnw41079100 0.0 1006889
05:00+4wnw5991100 0.3 1005654
08:00+3wnw51095100 2.9 1005612
11:00+4wnw4995100 0.3 1006566
14:00+5nw3693100 0.4 1007677
17:00+5nw3692100 0.2 1007531
20:00+5nw369596 0.2 1009298
17 april, sat
sat1723:00+5wnw2592100 0.1 1010305
02:00+5nnw3592100 0.1 1010682
05:00+4n378481 0.0 1011445
08:00+4n3587100 0.1 1012463
11:00+6ne2370100 0.1 1013940
14:00+8ene1161100 0.2 1013928
17:00+9nnw1255100 0.0 10121099
20:00+8n2371100 0.1 1013504
18 april, sun
sun1823:00+7nnw2574100 0.1 1013320
02:00+5nw257965 0.1 1013180
05:00+4nw248277 0.0 1013143
08:00+5wnw237780 0.0 1014163
11:00+9nw2358100 0.1 10141351
14:00+11wnw335185 0.3 10131513
17:00+11nw445399 0.3 10121365
20:00+9nw256896 0.6 1013538
19 april, mon
mon1923:00+6nw248047 0.0 1014159
02:00+5wnw2381100 0.0 1014107
05:00+4wnw2378100 0.0 1014126
08:00+5w2372100 0.0 1014183
11:00+10sw24514 0.0 10131095
14:00+12sw4644100 0.0 10121826
17:00+14sw4739100 0.0 10102137
20:00+11sw51053100 0.0 1011680